Beaufort, NC

11:33 PM EST on December 13, 2019 (GMT -0500)
Smith

Weather History for KMRH - October, 2019

Change the Weather History Date:

Friday, October 4, 2019

  Actual Average Record
Temperature  
Mean Temperature 80 °F -  
Max Temperature 90 °F 79 °F 89 °F (1986)
Min Temperature 72 °F 58 °F 39 °F (1974)
Cooling Degree Days 14    
Growing Degree Days 30 (Base 50)    
Moisture  
Dew Point 72 °F    
Average Humidity 80    
Maximum Humidity 97    
Minimum Humidity 66    
Precipitation  
Precipitation 0.00 in - - ()
Sea Level Pressure  
Sea Level Pressure 30.02 in    
Wind  
Wind Speed 12 mph (WSW)    
Max Wind Speed 21 mph    
Max Gust Speed 28 mph    
Visibility 10 miles    
Events      
Averages and records for this station are not official NWS values.
T = Trace of Precipitation, MM = Missing Value Source: NWS Daily Summary

Daily Weather History Graph

Daily Weather History Graph

Search for Another Location

Airport or City:

Astronomy

Oct. 04, 2019 Rise Set
Actual Time 7:03 AM EDT 6:46 PM EDT
Civil Twilight 6:38 AM EDT 7:12 PM EDT
Nautical Twilight 6:08 AM EDT 7:41 PM EDT
Astronomical Twilight 5:39 AM EDT 8:10 PM EDT
Moon 1:20 PM EDT (10/4) 11:27 PM EDT (10/4)
Length of Visible Light 12h 33m
Length of Day
11h 43m
Waxing Crescent, 39% of the Moon is Illuminated
Oct 4
Waxing Crescent
Oct 5
First Quarter
Oct 13
Full
Oct 21
Last Quarter
Oct 27
New

Hourly Weather History & Observations

Time (EDT) Temp. Heat Index Dew Point Humidity Pressure Visibility Wind Dir Wind Speed Gust Speed Precip Events Conditions
12:58 AM 80.1 °F 86.4 °F 78.1 °F 94% 29.99 in 9.0 mi SW 11.5 mph - N/A   Scattered Clouds
1:06 AM 80.1 °F 86.4 °F 78.1 °F 94% 29.99 in 9.0 mi SW 13.8 mph - N/A   Mostly Cloudy
1:44 AM 80.1 °F 86.4 °F 78.1 °F 94% 29.99 in 10.0 mi SW 15.0 mph - N/A   Scattered Clouds
1:58 AM 80.1 °F 86.4 °F 78.1 °F 94% 30.00 in 10.0 mi SW 12.7 mph - N/A   Mostly Cloudy
2:28 AM 80.1 °F 86.4 °F 78.1 °F 94% 29.99 in 10.0 mi SW 12.7 mph - N/A   Scattered Clouds
2:58 AM 79.0 °F - 78.1 °F 97% 29.99 in 10.0 mi WSW 11.5 mph - N/A   Clear
3:34 AM 79.0 °F - 78.1 °F 97% 29.98 in 10.0 mi SW 11.5 mph - N/A   Mostly Cloudy
3:58 AM 79.0 °F - 77.0 °F 94% 29.98 in 10.0 mi WSW 13.8 mph - N/A   Mostly Cloudy
4:47 AM 79.0 °F - 77.0 °F 94% 29.98 in 10.0 mi SW 12.7 mph - N/A   Scattered Clouds
4:58 AM 79.0 °F - 77.0 °F 94% 29.98 in 10.0 mi SW 11.5 mph - N/A   Partly Cloudy
5:58 AM 79.0 °F - 77.0 °F 94% 29.98 in 10.0 mi WSW 10.4 mph - N/A   Scattered Clouds
6:58 AM 79.0 °F - 77.0 °F 94% 29.99 in 10.0 mi WSW 8.1 mph - N/A   Partly Cloudy
7:58 AM 79.0 °F - 75.9 °F 90% 30.00 in 10.0 mi West 6.9 mph - N/A   Clear
8:58 AM 81.0 °F 85.8 °F 73.0 °F 77% 30.01 in 10.0 mi West 11.5 mph - N/A   Clear
9:58 AM 82.9 °F 88.8 °F 73.0 °F 72% 30.00 in 10.0 mi SW 10.4 mph - N/A   Clear
10:58 AM 84.0 °F 90.2 °F 73.0 °F 69% 30.00 in 9.0 mi SW 12.7 mph - N/A   Clear
11:58 AM 84.9 °F 91.4 °F 73.0 °F 67% 30.00 in 10.0 mi West 10.4 mph - N/A   Clear
12:58 PM 87.1 °F 96.3 °F 75.0 °F 67% 29.98 in 10.0 mi SW 9.2 mph - N/A   Clear
1:58 PM 86.0 °F 95.1 °F 75.0 °F 70% 29.98 in 10.0 mi SSW 6.9 mph - N/A   Clear
2:58 PM 84.0 °F 91.2 °F 73.9 °F 72% 29.99 in 9.0 mi ENE 11.5 mph 23.0 mph N/A   Mostly Cloudy
3:39 PM 84.0 °F 89.6 °F 72.0 °F 67% 29.99 in 10.0 mi NE 17.3 mph 23.0 mph N/A   Mostly Cloudy
3:58 PM 82.9 °F 88.0 °F 72.0 °F 69% 29.99 in 10.0 mi ENE 12.7 mph 21.9 mph N/A   Overcast
4:30 PM 80.1 °F 84.2 °F 73.0 °F 79% 30.01 in 10.0 mi NE 20.7 mph 27.6 mph N/A   Overcast
4:37 PM 79.0 °F - 72.0 °F 79% 30.01 in 10.0 mi NE 15.0 mph 27.6 mph N/A   Overcast
4:58 PM 78.1 °F - 71.1 °F 79% 30.02 in 10.0 mi NE 13.8 mph 19.6 mph N/A   Overcast
5:58 PM 75.0 °F - 66.0 °F 73% 30.04 in 10.0 mi NE 17.3 mph 26.5 mph N/A   Overcast
6:12 PM 73.9 °F - 64.9 °F 73% 30.04 in 10.0 mi NE 15.0 mph 25.3 mph N/A   Overcast
6:58 PM 73.9 °F - 64.0 °F 71% 30.07 in 10.0 mi NE 11.5 mph 25.3 mph N/A   Partly Cloudy
7:58 PM 73.0 °F - 63.0 °F 71% 30.08 in 10.0 mi NE 12.7 mph 23.0 mph N/A   Mostly Cloudy
8:58 PM 73.0 °F - 62.1 °F 68% 30.09 in 10.0 mi ENE 12.7 mph 21.9 mph N/A   Clear
9:58 PM 72.0 °F - 61.0 °F 68% 30.11 in 10.0 mi ENE 11.5 mph 20.7 mph N/A   Clear
10:58 PM 72.0 °F - 61.0 °F 68% 30.13 in 10.0 mi ENE 11.5 mph 20.7 mph N/A   Partly Cloudy
11:58 PM 73.0 °F - 61.0 °F 66% 30.14 in 10.0 mi NE 12.7 mph 21.9 mph N/A   Overcast